Wind_Speed
3 2 2 2 4 3 1 2 2 3 3 4 4 5 5 5 5 4 4 5 5 5 5 5 5 4 4 4 4 4 4 4 4 4 4 4 3 3 3 2 2 1 1 1 1 1 2 2 3
3 3 2 2 3 1 1 1 1 2 3 3 3 4 5 4 4 4 4 4 4 4 4 4 4 4 4 4 3 4 4 4 4 4 4 3 3 3 2 2 2 1 1 1 1 1 2 2 3
4 4 3 2 3 2 1 0 0 1 2 2 3 3 4 4 4 4 4 4 4 4 4 3 4 4 4 4 3 3 4 4 3 3 3 3 3 3 2 2 2 1 2 2 2 2 2 3 3
5 5 4 3 3 3 2 1 0 0 1 2 2 3 3 4 4 4 4 4 4 4 3 3 3 4 4 3 3 4 4 4 3 3 3 3 3 3 2 1 1 2 2 2 2 3 3 4 4
6 5 4 4 4 4 3 2 1 1 1 2 2 2 3 4 4 4 4 4 4 4 4 3 3 3 3 4 4 4 4 4 3 3 3 3 3 3 2 2 2 2 3 3 3 3 4 3 4
7 5 5 5 5 5 4 3 2 2 2 2 2 2 3 3 4 3 4 4 4 4 4 4 4 4 4 4 4 4 4 4 4 4 4 4 3 3 3 3 3 3 4 4 4 4 4 4 4
8 7 7 7 7 7 5 4 3 2 1 2 2 3 3 3 3 3 3 3 4 4 4 4 4 4 4 5 5 5 4 5 4 4 4 4 4 3 4 4 4 4 4 4 5 5 5 4 4
10 8 8 8 8 8 6 5 4 3 3 3 3 3 3 3 3 3 3 3 3 4 4 3 4 4 4 5 5 5 5 6 5 6 5 4 4 4 4 5 4 4 4 4 5 5 5 4 4
11 10 10 10 9 9 8 6 5 5 4 4 4 4 4 3 3 3 2 3 3 3 4 4 4 5 5 5 6 6 6 6 6 7 6 5 5 5 5 6 5 5 5 5 5 6 5 5 5
12 12 12 11 10 9 9 8 6 6 5 5 5 4 3 3 3 3 3 3 3 4 4 4 5 5 6 6 7 7 7 7 8 8 7 6 6 6 6 6 6 6 6 6 6 6 6 5 5
14 14 13 12 11 10 9 9 8 6 6 6 6 5 4 3 3 3 4 4 4 5 5 6 6 6 6 7 7 7 7 8 8 8 7 7 7 7 7 7 7 7 7 6 6 6 6 6 6
15 14 14 13 12 11 11 10 9 7 7 6 6 6 6 5 5 4 4 5 5 5 6 7 7 7 7 8 8 8 8 8 9 9 9 9 8 8 7 7 8 8 7 7 7 7 7 6 6
16 16 15 14 14 13 12 11 10 8 7 7 6 7 7 6 6 5 5 6 6 6 7 8 8 8 8 9 9 9 9 9 9 9 9 10 10 10 10 9 9 9 8 8 8 8 8 8 8
17 16 16 15 15 15 14 13 12 10 8 7 7 7 8 7 6 7 7 7 7 7 8 8 9 9 9 10 10 10 10 10 10 10 10 11 11 11 11 10 10 10 9 9 9 9 9 9 9
17 17 16 16 16 15 14 13 12 11 10 9 8 8 7 7 7 8 8 8 8 8 8 9 9 10 11 11 10 10 10 10 10 11 11 11 11 11 11 11 12 11 11 10 10 10 10 10 10
18 18 17 17 16 16 14 13 14 12 11 11 10 9 8 8 8 9 9 8 9 9 9 9 9 10 11 11 11 11 11 11 11 12 11 11 11 12 11 11 12 11 11 11 11 11 12 12 12
19 18 18 17 17 16 15 14 15 13 12 12 12 11 10 9 9 10 10 9 9 10 10 9 10 11 12 12 12 12 12 12 13 13 13 12 12 12 12 12 12 11 11 11 11 12 13 13 13
19 19 19 18 18 16 15 15 15 14 13 13 13 12 12 11 10 10 10 10 10 10 11 11 11 12 12 13 13 13 13 13 14 14 13 14 13 13 13 13 12 12 12 11 12 13 13 14 14
20 19 19 19 18 17 16 16 16 16 15 14 14 14 13 13 12 12 11 11 11 11 12 12 12 13 14 14 14 14 14 14 14 15 15 15 15 14 13 13 12 12 13 12 12 13 13 14 15
20 19 19 19 19 18 17 16 16 17 17 16 16 15 14 14 13 13 13 13 12 12 13 13 13 14 15 15 15 15 15 15 16 17 15 15 15 15 14 13 13 13 13 13 13 14 14 14 15
19 19 20 21 20 19 17 16 17 18 18 18 17 16 15 14 14 14 14 14 13 13 13 14 14 15 15 15 15 15 16 17 17 17 16 16 16 16 14 14 14 14 14 14 14 15 15 16 16
19 19 19 20 19 19 19 18 19 19 19 18 18 17 16 16 16 16 16 16 15 15 15 15 15 15 16 16 16 16 16 17 17 16 15 15 16 16 15 15 14 14 15 15 15 15 16 17 17
20 20 20 20 19 19 19 19 18 20 20 19 19 18 18 17 17 17 17 18 17 16 16 16 16 16 16 16 16 16 16 17 17 15 14 14 15 16 16 15 15 15 15 15 15 16 17 17 17
21 20 20 20 20 21 20 19 19 20 20 20 20 19 18 18 18 18 18 18 18 18 18 16 16 16 16 17 17 17 16 16 16 16 15 15 15 16 15 15 15 15 15 16 17 18 17 16 16
21 20 20 20 21 20 20 21 21 21 21 20 19 19 19 19 19 18 19 18 19 19 18 18 17 17 17 17 17 17 17 17 17 17 17 16 16 16 16 15 15 16 16 16 17 17 17 17 16
22 22 21 20 19 19 22 22 22 21 21 20 19 19 19 20 19 19 19 19 19 20 19 19 18 18 17 17 17 17 17 18 18 18 18 17 17 17 16 16 16 16 16 17 16 16 16 17 16
23 23 23 23 22 21 22 23 22 22 21 20 20 19 19 19 19 18 19 19 19 19 19 19 19 19 19 18 18 18 18 18 18 19 19 18 17 17 18 17 17 17 17 17 16 16 17 17 17
24 23 24 24 23 22 22 23 23 21 21 21 20 20 20 20 19 18 19 20 20 20 21 21 20 19 19 18 18 19 19 18 19 19 18 18 18 19 19 19 18 18 18 17 17 17 17 17 17
24 24 25 24 24 23 22 22 23 21 21 21 21 21 21 22 21 21 21 21 21 22 22 22 21 21 21 20 20 19 20 20 19 19 19 19 19 19 19 19 19 19 19 18 18 17 16 17 17
25 25 26 25 26 25 23 22 23 21 21 22 21 21 22 23 23 23 23 23 22 23 23 22 22 22 22 22 21 21 21 21 21 20 20 20 20 20 19 19 18 19 18 18 18 17 17 17 17
Wind_Direction
176 172 141 105 83 82 87 36 49 71 82 69 56 50 50 52 53 48 40 34 30 31 32 31 29 39 40 33 34 43 43 40 36 33 35 33 26 27 30 32 36 28 24 359 346 299 300 295 289
209 195 177 134 102 118 278 356 45 76 80 65 49 41 37 38 39 37 33 27 22 17 17 20 23 27 29 30 30 33 29 24 22 22 23 21 16 13 20 12 6 345 330 331 329 314 306 299 279
218 203 201 170 162 181 228 243 67 88 71 52 33 27 26 27 28 27 25 25 20 12 10 11 13 17 26 27 22 16 14 11 9 10 11 11 12 6 4 359 354 321 298 299 301 303 296 288 279
218 214 211 202 207 219 229 229 330 20 24 21 20 15 17 18 20 23 19 20 14 9 9 7 9 12 18 20 13 10 7 2 360 358 356 354 357 357 350 340 338 308 285 284 289 293 288 282 277
220 217 216 220 230 234 234 254 273 295 342 352 359 8 3 360 8 18 21 20 15 12 11 8 7 6 6 4 3 5 3 360 355 347 341 344 343 342 331 322 312 298 285 282 284 288 288 287 276
221 219 216 217 231 238 239 252 258 276 319 328 332 359 356 355 357 6 18 22 18 13 11 5 359 353 351 351 354 353 352 354 350 341 332 332 331 324 320 314 306 295 291 281 280 281 283 284 278
223 220 220 221 229 240 243 252 253 268 299 315 329 350 349 352 353 358 14 20 14 12 10 5 2 355 348 350 350 345 341 338 338 338 329 326 326 324 320 316 307 303 294 290 286 283 281 277 276
229 228 228 229 229 238 244 250 259 266 280 305 315 326 336 343 343 348 4 9 6 3 360 358 358 354 350 353 353 349 344 341 338 336 330 323 321 317 316 316 308 303 295 291 280 277 276 277 274
232 228 231 229 229 235 241 248 257 268 279 288 303 311 327 339 338 330 337 345 343 345 351 353 351 348 346 346 343 340 337 336 336 335 332 323 320 317 311 312 309 301 293 285 279 271 270 273 272
232 228 232 231 230 234 241 249 257 265 275 279 287 297 313 318 322 326 328 336 332 325 327 334 336 339 340 338 335 332 328 330 333 332 331 324 323 319 313 310 304 298 294 286 281 276 270 270 272
232 229 231 232 234 236 242 247 254 258 265 272 275 283 296 301 302 315 321 319 317 314 314 321 323 325 326 326 328 324 319 323 328 329 326 325 323 319 311 305 299 292 288 283 279 277 276 277 272
231 232 233 235 239 241 242 244 248 251 259 267 272 278 281 291 292 301 309 309 311 313 314 315 314 315 317 317 320 320 318 321 327 323 319 320 316 313 310 300 295 293 285 278 276 275 276 279 273
230 231 234 236 240 242 243 243 243 249 256 262 270 272 279 285 287 291 296 300 303 307 308 309 310 311 313 312 311 314 316 318 323 321 316 316 312 308 306 303 298 290 283 275 276 277 275 274 274
229 231 234 237 240 242 243 244 244 247 251 255 267 274 277 281 285 284 288 292 300 303 307 307 307 306 309 307 306 307 310 313 315 315 311 309 309 307 304 299 295 290 280 275 277 278 274 270 270
230 232 236 238 240 241 242 244 247 246 250 252 262 273 273 278 285 288 288 294 298 299 303 307 308 308 306 304 299 301 306 309 310 309 306 304 301 301 300 296 294 290 284 279 274 273 272 269 267
231 233 237 240 240 242 242 244 247 245 244 250 257 264 268 275 284 288 287 294 299 299 300 306 313 316 313 310 302 300 302 302 305 306 301 299 298 299 300 297 296 291 287 280 274 272 272 270 266
230 232 236 242 240 242 240 239 244 246 247 250 254 260 267 272 278 284 286 288 291 296 299 301 309 313 313 310 306 303 301 301 302 306 303 300 296 297 297 296 295 292 289 283 278 275 272 269 268
231 232 235 239 240 241 241 241 244 245 249 251 254 261 269 274 276 282 286 288 287 290 294 296 302 309 312 311 308 304 301 301 302 305 303 299 294 297 295 294 292 287 284 282 280 276 273 270 270
228 231 234 236 239 241 244 243 245 246 249 252 256 263 268 271 275 279 282 286 287 288 291 293 298 306 311 311 307 303 299 299 298 301 299 296 292 295 297 293 290 287 283 281 279 277 276 272 270
229 232 235 237 240 243 245 243 245 247 248 252 256 263 269 271 273 275 278 282 284 286 289 289 294 302 307 308 307 303 299 297 299 298 291 290 291 291 294 292 290 286 284 282 279 278 277 275 274
233 234 234 237 240 243 246 247 248 247 247 251 257 262 267 269 270 271 274 277 280 285 287 288 291 296 301 306 305 305 302 298 297 293 287 286 290 288 291 291 289 284 284 284 282 280 279 278 275
233 235 235 238 241 246 247 244 250 250 250 251 256 261 265 268 270 271 273 275 278 281 282 283 285 291 296 300 300 301 300 302 300 293 291 292 295 290 291 289 289 289 285 285 283 282 282 280 276
232 234 237 241 242 244 249 247 249 251 251 253 257 262 266 268 270 270 272 273 275 277 280 282 282 287 292 295 298 300 301 302 303 299 295 296 299 297 294 292 290 290 289 287 285 284 282 280 275
232 236 240 244 245 248 249 251 250 251 253 255 258 262 265 268 270 268 269 271 271 273 277 280 282 283 287 291 296 297 297 299 300 296 293 294 298 299 299 296 293 290 290 290 289 285 282 279 274
236 236 241 246 249 252 252 252 250 252 255 258 260 263 266 269 270 268 268 269 269 271 274 277 278 280 284 288 291 292 294 297 298 296 293 292 294 296 298 299 297 293 292 291 291 287 283 283 279
241 239 239 242 249 255 257 254 254 255 255 258 261 265 266 268 269 267 267 269 270 271 272 275 276 278 282 286 290 290 292 295 296 297 293 293 294 293 296 296 294 296 295 293 293 290 285 283 280
243 242 242 245 246 248 253 257 256 257 258 259 263 265 267 267 267 267 267 269 271 273 274 276 277 276 280 284 286 289 292 294 295 295 293 292 292 293 295 295 295 298 296 291 289 288 286 283 281
243 243 243 244 247 250 256 260 260 259 260 261 262 263 265 265 265 267 268 270 271 273 275 277 276 275 277 280 282 286 289 292 294 294 293 293 292 292 293 293 291 292 293 290 286 286 285 282 280
244 244 245 247 248 249 255 260 261 260 259 260 260 261 264 265 267 270 270 270 272 274 275 276 275 274 275 278 279 283 287 290 293 293 292 294 294 294 293 290 289 289 288 288 285 283 283 282 280
246 247 247 247 250 252 253 256 259 260 259 258 259 262 263 265 267 269 268 269 271 272 274 275 274 272 273 275 278 282 285 287 289 290 290 293 294 293 290 288 289 290 288 286 284 281 282 280 279
Height
5904 5904 5905 5907 5909 5910 5909 5908 5907 5907 5906 5905 5904 5903 5903 5902 5902 5904 5901 5898 5898 5897 5896 5895 5895 5894 5893 5892 5891 5890 5890 5889 5888 5887 5886 5886 5885 5884 5884 5883 5883 5882 5881 5881 5880 5880 5879 5879 5878
5903 5904 5906 5908 5909 5911 5910 5908 5907 5906 5906 5905 5904 5903 5902 5902 5901 5901 5899 5899 5898 5897 5896 5895 5895 5894 5893 5892 5891 5890 5889 5888 5887 5887 5886 5885 5884 5884 5883 5883 5882 5882 5881 5880 5880 5879 5879 5878 5877
5903 5904 5906 5908 5909 5910 5909 5908 5907 5906 5905 5905 5904 5903 5903 5902 5901 5900 5899 5898 5898 5897 5896 5895 5894 5894 5893 5892 5891 5890 5889 5888 5887 5886 5885 5885 5884 5883 5883 5882 5882 5881 5880 5880 5879 5879 5878 5878 5877
5903 5904 5906 5908 5908 5908 5908 5907 5906 5905 5905 5904 5904 5903 5902 5901 5900 5900 5899 5898 5897 5896 5895 5895 5894 5893 5893 5892 5891 5890 5889 5888 5887 5886 5885 5884 5883 5883 5882 5881 5881 5880 5880 5879 5878 5878 5877 5877 5876
5902 5904 5906 5907 5906 5907 5907 5906 5906 5905 5905 5904 5903 5902 5901 5901 5900 5899 5898 5898 5897 5896 5895 5895 5894 5893 5892 5892 5891 5890 5888 5887 5886 5885 5884 5883 5883 5882 5881 5881 5880 5879 5879 5878 5878 5877 5876 5876 5876
5902 5904 5906 5906 5906 5906 5906 5905 5905 5905 5904 5903 5903 5902 5901 5900 5899 5899 5898 5897 5897 5896 5895 5894 5893 5893 5892 5891 5890 5889 5888 5887 5886 5884 5884 5883 5882 5881 5880 5880 5879 5879 5878 5877 5877 5876 5875 5875 5874
5901 5903 5904 5905 5905 5905 5905 5905 5905 5904 5904 5903 5902 5901 5900 5900 5899 5899 5898 5897 5896 5896 5895 5894 5893 5892 5891 5890 5890 5889 5887 5886 5885 5884 5883 5882 5881 5880 5879 5878 5878 5877 5877 5876 5876 5875 5874 5874 5873
5899 5902 5902 5903 5904 5904 5904 5904 5904 5903 5903 5902 5902 5901 5900 5900 5899 5898 5897 5897 5896 5895 5894 5893 5892 5891 5891 5890 5889 5888 5887 5886 5884 5883 5882 5881 5880 5879 5878 5877 5877 5876 5876 5875 5875 5874 5873 5873 5872
5897 5901 5901 5902 5902 5902 5902 5903 5903 5902 5902 5901 5901 5900 5900 5899 5898 5898 5897 5896 5896 5895 5894 5893 5892 5891 5890 5889 5888 5887 5886 5885 5883 5882 5881 5880 5879 5877 5876 5876 5875 5875 5874 5874 5873 5873 5872 5872 5871
5895 5898 5898 5899 5900 5900 5900 5901 5901 5901 5901 5901 5900 5899 5899 5898 5898 5897 5896 5896 5895 5894 5893 5892 5891 5890 5889 5888 5887 5886 5885 5883 5882 5881 5880 5878 5877 5876 5875 5874 5873 5873 5872 5872 5872 5871 5871 5871 5870
5892 5894 5895 5896 5897 5898 5899 5899 5900 5900 5900 5900 5899 5898 5898 5897 5897 5896 5896 5895 5894 5893 5893 5891 5890 5889 5888 5887 5886 5884 5883 5882 5881 5880 5878 5877 5876 5875 5874 5872 5871 5871 5871 5870 5870 5870 5869 5869 5869
5889 5891 5892 5894 5895 5896 5896 5897 5898 5898 5899 5898 5898 5897 5897 5896 5896 5895 5895 5894 5893 5892 5891 5890 5889 5888 5887 5886 5885 5883 5882 5881 5879 5878 5877 5876 5875 5874 5873 5871 5870 5869 5869 5869 5868 5868 5868 5867 5867
5886 5888 5889 5891 5892 5893 5894 5895 5895 5896 5896 5896 5896 5896 5895 5895 5894 5894 5893 5893 5892 5891 5890 5889 5888 5887 5885 5884 5883 5882 5880 5879 5878 5877 5876 5875 5874 5873 5871 5870 5869 5868 5867 5867 5866 5866 5866 5866 5866
5883 5885 5887 5888 5889 5890 5892 5893 5894 5894 5894 5894 5894 5894 5894 5893 5893 5892 5892 5891 5890 5890 5889 5888 5886 5885 5884 5882 5881 5880 5879 5878 5876 5875 5874 5873 5872 5870 5869 5868 5867 5866 5865 5865 5865 5864 5864 5864 5864
5880 5883 5884 5885 5886 5888 5889 5891 5891 5892 5892 5892 5892 5892 5892 5892 5891 5891 5890 5889 5889 5888 5887 5886 5884 5883 5881 5880 5879 5878 5877 5876 5875 5873 5872 5870 5869 5868 5867 5866 5864 5863 5862 5862 5862 5862 5862 5862 5862
5877 5880 5882 5883 5884 5885 5889 5889 5889 5889 5890 5890 5890 5890 5890 5890 5889 5888 5888 5887 5886 5886 5885 5884 5882 5881 5879 5878 5877 5876 5875 5874 5873 5871 5869 5868 5867 5865 5864 5863 5862 5860 5860 5860 5860 5860 5859 5859 5859
5874 5877 5879 5880 5881 5882 5885 5886 5886 5886 5887 5888 5888 5888 5888 5888 5887 5886 5886 5885 5884 5883 5883 5882 5880 5879 5878 5876 5875 5874 5873 5872 5870 5869 5867 5866 5865 5864 5862 5861 5859 5858 5857 5857 5857 5857 5856 5856 5856
5871 5874 5875 5877 5878 5879 5881 5882 5883 5884 5884 5885 5885 5885 5885 5885 5885 5884 5883 5883 5882 5881 5880 5879 5878 5877 5875 5874 5872 5872 5870 5869 5868 5866 5865 5864 5862 5861 5859 5858 5857 5856 5855 5854 5853 5853 5853 5853 5853
5867 5869 5871 5873 5874 5876 5877 5879 5880 5880 5881 5882 5882 5883 5883 5882 5882 5881 5881 5880 5879 5879 5878 5877 5876 5875 5873 5872 5870 5869 5867 5866 5865 5864 5862 5861 5859 5858 5856 5855 5854 5853 5852 5851 5850 5849 5849 5849 5849
5863 5865 5868 5869 5870 5872 5873 5875 5876 5877 5878 5878 5879 5879 5879 5879 5879 5879 5878 5877 5877 5876 5875 5874 5873 5872 5871 5870 5868 5866 5864 5863 5862 5861 5859 5858 5856 5855 5853 5852 5851 5849 5848 5847 5846 5846 5845 5845 5844
5858 5861 5863 5865 5866 5868 5870 5872 5873 5873 5874 5875 5875 5876 5876 5876 5876 5876 5875 5874 5874 5873 5873 5872 5871 5870 5869 5867 5865 5864 5862 5860 5859 5857 5855 5854 5853 5851 5850 5849 5847 5846 5845 5844 5843 5842 5841 5841 5840
5854 5856 5858 5860 5863 5865 5867 5869 5869 5869 5870 5870 5871 5871 5872 5872 5872 5872 5871 5871 5871 5870 5869 5868 5867 5867 5866 5864 5863 5861 5859 5857 5855 5853 5851 5850 5849 5847 5846 5845 5843 5842 5841 5840 5839 5838 5837 5836 5835
5850 5852 5854 5856 5858 5861 5862 5864 5867 5865 5865 5866 5867 5867 5868 5868 5868 5867 5867 5867 5867 5866 5866 5865 5864 5863 5862 5861 5860 5858 5856 5854 5852 5850 5848 5847 5845 5844 5842 5841 5839 5838 5837 5836 5835 5833 5832 5831 5830
5845 5848 5850 5852 5854 5856 5858 5860 5861 5861 5861 5862 5862 5863 5863 5863 5863 5863 5863 5863 5863 5862 5862 5861 5861 5860 5859 5858 5856 5855 5853 5851 5849 5846 5845 5843 5842 5840 5838 5837 5835 5834 5833 5831 5830 5829 5827 5826 5825
5842 5845 5847 5849 5850 5852 5853 5854 5856 5856 5856 5857 5857 5858 5858 5859 5859 5859 5858 5858 5858 5858 5858 5857 5857 5856 5855 5854 5853 5851 5849 5847 5845 5843 5841 5840 5838 5836 5835 5833 5831 5830 5828 5827 5825 5823 5822 5821 5820
5837 5840 5844 5846 5848 5849 5847 5848 5851 5850 5851 5852 5852 5853 5853 5854 5854 5854 5854 5854 5854 5853 5853 5853 5852 5852 5851 5850 5849 5847 5845 5844 5842 5840 5837 5835 5834 5832 5831 5829 5827 5825 5824 5822 5820 5818 5817 5816 5814
5832 5834 5837 5839 5840 5842 5843 5843 5845 5845 5846 5847 5848 5848 5848 5849 5849 5849 5849 5849 5849 5849 5848 5848 5848 5847 5847 5846 5845 5843 5841 5840 5838 5835 5833 5831 5830 5828 5826 5824 5823 5821 5820 5818 5816 5814 5812 5811 5810
5826 5828 5830 5832 5834 5836 5838 5838 5839 5839 5840 5842 5842 5843 5843 5843 5843 5844 5844 5844 5844 5843 5843 5843 5842 5842 5841 5840 5840 5839 5837 5835 5833 5831 5829 5827 5825 5823 5821 5819 5818 5816 5815 5813 5811 5809 5807 5806 5805
5821 5823 5824 5827 5829 5831 5833 5835 5832 5834 5834 5835 5836 5837 5837 5838 5838 5838 5838 5838 5838 5838 5837 5837 5836 5836 5836 5835 5834 5833 5832 5830 5828 5826 5824 5822 5820 5818 5815 5814 5812 5811 5810 5808 5807 5805 5803 5801 5800
5814 5817 5819 5821 5822 5823 5826 5830 5826 5827 5828 5829 5830 5831 5831 5831 5831 5832 5832 5832 5832 5831 5831 5831 5830 5830 5829 5829 5828 5828 5826 5825 5823 5821 5819 5817 5814 5812 5809 5808 5807 5806 5804 5803 5802 5800 5798 5797 5795